Freedom, CA

8:42 PM PST on February 21, 2017 (GMT -0800)
Watsonville Municipal

Weather History for KWVI - September, 2012

Change the Weather History Date:

Friday, September 21, 2012

  Actual Average Record
Temperature  
Mean Temperature 61 °F 63 °F  
Max Temperature 74 °F 75 °F 97 °F (2003)
Min Temperature 47 °F 51 °F 44 °F (2004)
Degree Days  
Heating Degree Days 4    
Month to date heating degree days 83  
Since 1 July heating degree days 319  
Cooling Degree Days 0    
Month to date cooling degree days 0  
Year to date cooling degree days 19  
Growing Degree Days 10 (Base 50)    
Moisture  
Dew Point 49 °F    
Average Humidity 69    
Maximum Humidity 93    
Minimum Humidity 44    
Precipitation  
Precipitation 0.00 in - 0.07 in (2013)
Month to date precipitation T  
Year to date precipitation 11.98  
Since 1 July precipitation 0.05  
Sea Level Pressure  
Sea Level Pressure 29.96 in    
Wind  
Wind Speed 3 mph (South)    
Max Wind Speed 10 mph    
Max Gust Speed 40 mph    
Visibility 10 miles    
Events      
T = Trace of Precipitation, MM = Missing Value Source: NWS Daily Summary

Daily Weather History Graph

Daily Weather History Graph

Search for Another Location

Airport or City:

Trip Planner

Search our weather history database for the weather conditions in past years. The results will help you decide how hot, cold, wet, or windy it might be!

Date:

Astronomy

Sep. 21, 2012 Rise Set
Actual Time 6:54 AM PDT 7:04 PM PDT
Civil Twilight 6:28 AM PDT 7:30 PM PDT
Nautical Twilight 5:58 AM PDT 8:00 PM PDT
Astronomical Twilight 5:27 AM PDT 8:31 PM PDT
Moon 1:12 PM PDT (9/21) 11:19 PM PDT (9/21)
Length of Visible Light 13h 01m
Length of Day
12h 10m
Waxing Crescent, 38% of the Moon is Illuminated
Sep 21
Waxing Crescent
Sep 22
First Quarter
Sep 29
Full
Oct 8
Last Quarter
Oct 15
New

Hourly Weather History & Observations

Time (PDT) Temp. Dew Point Humidity Pressure Visibility Wind Dir Wind Speed Gust Speed Precip Events Conditions
12:53 AM 53.1 °F 48.0 °F 83% 30.01 in 10.0 mi Calm Calm - N/A   Clear
1:53 AM 52.0 °F 46.9 °F 83% 30.01 in 10.0 mi NW 3.5 mph - N/A   Clear
2:53 AM 51.1 °F 46.9 °F 86% 29.99 in 10.0 mi Calm Calm - N/A   Clear
3:53 AM 51.1 °F 46.9 °F 86% 29.99 in 10.0 mi Calm Calm - N/A   Clear
4:53 AM 48.9 °F 45.0 °F 86% 29.99 in 10.0 mi Calm Calm - N/A   Clear
5:53 AM 48.9 °F 46.0 °F 90% 30.00 in 10.0 mi Calm Calm - N/A   Clear
6:53 AM 48.9 °F 46.0 °F 90% 30.01 in 10.0 mi NW 3.5 mph - N/A   Clear
7:53 AM 52.0 °F 48.0 °F 86% 30.01 in 10.0 mi NNW 3.5 mph - N/A   Clear
8:53 AM 57.0 °F 48.9 °F 74% 30.01 in 10.0 mi Calm Calm - N/A   Clear
9:53 AM 62.1 °F 48.9 °F 62% 30.01 in 10.0 mi Calm Calm - N/A   Clear
10:53 AM 64.9 °F 51.1 °F 61% 30.00 in 10.0 mi Variable 3.5 mph - N/A   Clear
11:53 AM 68.0 °F 52.0 °F 56% 29.99 in 10.0 mi South 4.6 mph - N/A   Clear
12:53 PM 71.1 °F 51.1 °F 49% 29.96 in 10.0 mi South 8.1 mph - N/A   Clear
1:53 PM 72.0 °F 50.0 °F 46% 29.94 in 10.0 mi South 6.9 mph - N/A   Clear
2:53 PM 70.0 °F 48.9 °F 47% 29.93 in 10.0 mi South 8.1 mph - N/A   Clear
3:53 PM 70.0 °F 46.9 °F 44% 29.92 in 10.0 mi SSE 4.6 mph - N/A   Clear
4:53 PM 70.0 °F 50.0 °F 49% 29.91 in 10.0 mi SE 3.5 mph - N/A   Clear
5:53 PM 64.9 °F 51.1 °F 61% 29.91 in 10.0 mi SSE 9.2 mph - N/A   Clear
6:53 PM 60.1 °F 51.1 °F 72% 29.91 in 10.0 mi SSE 6.9 mph - N/A   Clear
7:53 PM 57.9 °F 50.0 °F 75% 29.91 in 10.0 mi Calm Calm - N/A   Clear
8:53 PM 57.0 °F 51.1 °F 81% 29.92 in 10.0 mi Calm Calm - N/A   Clear
9:53 PM 57.0 °F 51.1 °F 81% 29.93 in 10.0 mi Calm Calm - N/A   Clear
10:53 PM 55.9 °F 51.1 °F 84% 29.93 in 10.0 mi Calm Calm - N/A   Clear
11:53 PM 54.0 °F 50.0 °F 86% 29.94 in 10.0 mi Calm Calm - N/A   Clear